星链-1932 (STARLINK-1932 )

导读 | 星芒AI

STARLINK-1932 是 SpaceX Starlink 项目中的一颗低轨道互联网卫星,属于该计划的第二批(v1.5)卫星之一。它于2022年发射,旨在为全球用户提供高速、低延迟的宽带互联网服务。该卫星采用先进的推进系统和激光通信技术,以提高网络效率和卫星间通信能力。作为 Starlink 卫星群的一部分,STARLINK-1932 在促进偏远地区互联网接入和增强全球通信基础设施方面发挥着重要作用。

基本信息
目录编号:
46770
目录名称:
STARLINK-1932
国际标识:
2020-074AH
轨道中心:
EARTH
卫星名称:
星链-1932
卫星全名:
星链-1932 (STARLINK-1932 )
卫星状态:
已陨落 最后检测时间 2025-03-26
发射日期:
2020-10-24 UTC
国别 :
美国 (US)
星等 :
--
轨道信息
数据来源 国际轨道数据
星历时间: 2025-03-26T04:30:40+0800
轨道信息已过期265天
半长轴: 6533.457km
偏心率: 0.0007276
轨道倾角: 53.026°
近地点辐角 173.717°
升交点赤经 48.992°
平近点角 275.296°
近地点: 150.568km
远地点: 160.076km
周期: 87.594分钟
每日圈数: 16.439487
详细信息
固有亮度:
5
最大亮度:
2.5
卫星平台:
Starlink V1.0
覆盖范围:
全球
运营商:
太空探索技术公司
运营商所在国:
美国
制造商(研发单位):
太空探索技术公司
制造商所在国:
美国
使用方式:
暂无
卫星简介
星链(Starlink)计划是由太空探索技术公司(SpaceX)提出的一个巨型低轨卫星互联网星座项目,计划在2019年至2024年间在太空搭建由约1.2万颗卫星组成的“星链”网络,其中1584颗将部署在地球上空550千米处的近地轨道,并从2020年开始工作。该卫星仍在工作。